Temp_Advection
nan nan nan nan nan nan nan nan nan nan nan nan nan nan nan nan nan nan nan nan nan nan nan nan nan nan nan nan nan nan nan nan nan nan nan nan nan nan nan nan nan nan nan nan
nan -0 -0 0 1 0 -0 0 -0 -0 0 -0 -0 -0 0 -0 0 -0 -0 0 0 0 -0 -0 0 0 0 0 -0 -0 -0 -0 0 0 -0 -0 0 -0 -0 -0 -0 -0 0 nan
nan -0 -0 -0 0 0 -0 -0 -0 -0 -0 0 0 -0 -0 0 0 0 -0 0 -0 -0 -0 0 0 0 0 0 0 -0 -0 -0 -0 -0 0 -0 0 0 0 -0 -0 -0 -0 nan
nan -0 -0 -1 -0 -0 -0 -0 0 -0 -0 0 0 0 -0 -0 0 -0 0 -0 -0 -0 0 -0 -0 0 0 0 0 -0 -0 -0 0 -0 -0 -0 -0 0 0 -0 -0 -0 -0 nan
nan 0 -0 -1 -1 -0 -0 -0 0 -0 -0 -0 -0 0 0 0 0 0 0 0 0 0 0 -0 -0 -0 0 0 -0 -0 -0 0 0 -0 -0 0 0 0 -0 -0 0 -0 -0 nan
nan 0 -0 -0 -0 -0 -0 -0 -0 -0 -0 -0 -0 0 0 0 0 0 0 -0 -0 -0 -0 0 0 -0 -0 -0 -0 0 -0 -0 -0 -0 -0 -0 0 -0 -0 -0 -0 -0 -0 nan
nan 0 0 -0 -0 -0 -0 -0 -0 -0 -0 -0 -0 -0 0 -0 0 -0 -0 -0 0 0 0 0 -0 -1 -0 -0 0 0 -0 -0 -0 0 0 -0 -1 -0 -0 -0 -1 -1 -1 nan
nan 0 0 0 -0 -0 -0 0 -0 -0 -0 -0 -0 -0 -0 -0 -0 -0 -0 0 0 0 -0 -0 0 -0 0 -0 0 -0 -0 -0 -0 0 -0 -0 -0 -0 -0 -0 -0 -0 -0 nan
nan 0 0 0 0 -0 -0 -0 -0 -0 -0 -0 -0 -0 -0 -0 -0 -0 0 0 0 -0 -0 0 0 0 0 0 -0 -0 -0 -0 -0 -0 -0 -0 -0 -0 -0 -0 -0 -0 -0 nan
nan 0 0 0 0 -0 -0 -0 -0 -0 -0 -0 -0 -0 -0 -0 -0 0 -0 -0 -0 -1 -0 0 0 0 0 0 0 0 0 0 -0 -0 0 -0 -0 -0 0 0 -0 -0 -0 nan
nan 0 -0 0 0 0 -0 -0 -0 -0 -0 -1 -0 -0 -0 -0 -0 -0 -0 -0 -0 -0 0 0 -0 0 0 -0 -0 0 0 0 0 0 0 -0 -0 -0 -0 -0 0 0 -1 nan
nan -0 0 0 0 0 0 -0 -0 -0 -0 -1 -1 -1 -0 -0 -0 0 -0 -0 -0 -0 -0 -0 0 -0 -0 -0 -0 0 0 -0 0 -0 -0 -1 -0 -1 -1 1 0 0 0 nan
nan -0 -0 0 0 0 0 -0 -0 -0 -0 -1 -1 -1 -0 -0 -0 -0 -0 -0 -0 -0 -0 -0 -0 0 -0 -0 0 -0 -0 -0 -0 0 0 -0 -2 -1 -0 0 1 0 0 nan
nan -0 -0 -0 -0 0 0 0 -0 -0 -0 -0 -0 -0 -0 -0 0 0 0 -0 -0 0 0 -0 -0 -0 -0 0 -0 0 -0 -0 0 -0 -1 -2 -1 -0 0 0 0 0 0 nan
nan -0 -0 -0 0 0 0 -0 -0 -0 -0 -0 -1 -1 -0 0 0 0 0 0 0 0 0 -0 -0 -0 -0 0 -0 -0 -0 -0 -0 -0 -1 -0 -0 -0 0 0 0 0 0 nan
nan -0 -0 -0 0 0 -0 -0 -0 0 0 -0 -0 -0 -0 0 0 0 0 0 0 0 0 0 -0 -0 -0 -0 -0 0 0 -0 -0 -0 -1 -0 -0 -0 -0 0 0 0 0 nan
nan -0 -0 -0 -0 -0 -0 -0 0 0 -0 -0 -0 -0 0 0 0 -0 0 0 0 0 0 0 0 0 0 0 0 -0 -0 -0 -0 -0 -1 -0 -0 -0 -0 -0 0 -0 0 nan
nan 0 0 -0 0 0 -0 -0 -0 0 -0 -0 -0 -0 -0 0 -0 0 0 0 0 0 0 -0 -0 0 0 0 -0 -1 -1 -1 -0 -0 -0 -0 -1 -0 -0 -0 -0 -0 0 nan
nan 0 -0 0 0 -0 -0 -0 -0 -0 -0 -0 -0 -0 -0 -0 -0 0 0 0 0 0 -0 0 -0 0 0 -0 -0 -0 -1 -1 -2 -3 -1 -0 -0 -0 -0 -0 0 0 0 nan
nan 0 -0 -0 -0 -0 -0 -0 -0 -0 -0 -0 -0 -0 -0 -0 0 0 0 0 0 -0 0 0 0 0 -0 -0 -0 -0 -0 -0 -0 -1 -2 -1 -0 -0 -0 -0 0 0 0 nan
nan -0 -0 0 -0 -0 -0 -0 -0 -0 -0 -0 -0 -0 -0 -0 0 0 0 0 0 -0 0 -0 -0 0 0 -0 -0 -0 -0 -0 -0 -0 -1 -1 -1 -1 -0 -0 0 0 0 nan
nan -0 -0 0 -0 -0 -0 -0 -0 -0 -0 -0 0 0 0 0 0 0 0 0 -0 0 -0 -0 0 -0 -0 -0 -0 -0 -0 -0 -0 -0 -0 -0 -0 -0 -0 0 0 0 0 nan
nan -0 -0 -0 -0 -0 -0 0 0 0 0 0 0 0 0 0 0 0 -0 -0 0 -0 -0 -0 -0 -0 -0 -0 -0 -0 -0 -0 -0 -0 -0 -0 -0 -0 -0 0 0 0 0 nan
nan -0 -0 -0 0 0 0 0 0 0 0 0 0 -0 0 0 0 -0 0 0 -0 -0 -0 0 -0 0 -0 0 0 -0 -0 -0 -0 -0 -0 -0 -0 -0 -0 -0 0 0 0 nan
nan -0 -0 0 -0 -0 0 0 -0 0 0 0 0 0 -0 0 -0 -0 -0 -0 -0 0 0 0 0 0 0 -0 -0 -0 -0 -0 -0 -0 -0 -0 -0 -0 -0 -0 0 0 0 nan
nan 0 -0 -0 0 0 0 0 0 0 0 0 -0 -0 0 0 -0 -0 -0 0 0 0 0 0 0 0 -0 0 0 0 0 0 0 0 0 -0 -0 -0 -0 -0 -0 -0 -0 nan
nan nan nan nan nan nan nan nan nan nan nan nan nan nan nan nan nan nan nan nan nan nan nan nan nan nan nan nan nan nan nan nan nan nan nan nan nan nan nan nan nan nan nan nan
Wind_Speed
29 29 28 28 29 26 18 7 2 6 13 4 2 2 6 7 2 1 2 4 7 4 5 4 3 4 3 4 5 4 2 5 3 2 1 4 4 5 5 4 4 1 3 6
28 29 27 25 26 22 16 4 6 6 10 2 3 4 4 2 3 4 5 3 4 5 3 5 4 4 4 9 4 6 4 2 3 2 2 1 3 4 4 4 3 4 4 5
28 27 28 23 23 18 10 5 4 5 5 1 4 5 4 6 6 5 2 3 5 5 5 5 4 3 4 12 5 5 4 3 4 5 3 4 4 4 6 5 2 3 6 6
27 24 28 22 21 15 6 5 2 4 4 4 6 3 3 4 2 3 10 5 5 5 3 3 4 3 3 5 6 3 3 2 2 1 2 2 4 4 7 8 10 6 3 9
25 23 23 21 20 13 10 5 4 6 5 11 6 3 4 7 5 6 5 5 6 5 4 0 5 6 2 3 3 3 2 1 3 3 4 3 4 7 8 11 10 13 16 21
21 25 19 20 17 19 8 12 10 5 7 5 3 5 7 10 6 12 12 6 5 10 5 5 13 10 5 6 5 3 3 3 2 3 4 4 5 7 11 6 6 11 10 19
18 22 20 17 14 15 13 10 8 5 4 3 3 6 8 11 7 3 4 9 3 2 2 15 20 20 15 11 7 3 4 3 2 1 4 1 5 2 5 11 9 12 13 16
17 19 20 17 13 10 11 8 6 5 3 7 6 9 3 11 8 4 4 8 5 4 4 4 4 3 3 5 6 5 3 3 2 2 2 6 4 2 5 4 3 5 11 12
19 14 16 18 13 11 10 4 7 4 5 2 7 4 5 2 3 4 3 6 8 3 3 3 2 3 3 3 2 4 5 6 3 1 2 3 3 2 1 2 3 1 4 6
17 16 14 16 16 9 12 8 7 5 4 5 5 2 3 4 2 1 2 3 4 6 2 2 2 1 4 4 5 3 3 1 3 2 2 6 6 7 5 1 2 4 7 14
17 16 13 15 16 8 12 10 6 4 5 15 8 5 3 6 3 1 2 2 3 3 3 1 1 1 1 2 4 5 6 5 3 3 3 6 4 1 3 1 11 14 20 15
16 16 14 14 15 11 11 13 5 8 8 10 12 15 14 12 4 3 2 1 2 3 3 1 1 1 1 2 2 1 3 5 4 7 6 6 5 10 11 18 17 17 13 10
16 15 16 16 17 15 12 14 12 9 7 14 9 7 6 10 5 4 2 2 1 2 2 4 1 2 2 2 3 2 4 5 2 1 4 10 19 19 24 18 17 12 10 9
16 17 16 18 16 15 13 16 13 9 6 4 5 2 6 8 9 10 8 6 2 2 3 2 1 2 4 2 2 3 4 7 4 5 9 19 13 10 3 2 7 11 10 7
17 17 18 18 15 12 11 16 16 12 8 4 8 6 8 8 8 9 10 11 9 5 3 2 3 2 1 1 1 4 8 6 4 5 8 6 10 7 8 10 10 11 10 8
18 17 17 15 13 10 10 5 12 17 15 4 2 3 5 6 7 8 8 9 11 9 5 4 5 6 4 2 3 4 3 4 10 9 16 14 15 15 12 11 12 10 8 6
18 16 19 17 12 15 13 4 4 14 15 4 3 3 3 8 7 5 4 7 7 8 5 6 3 6 9 2 3 2 11 13 4 4 9 6 6 8 10 11 9 7 6 4
13 13 13 5 13 11 16 18 7 16 12 4 2 2 2 7 4 4 5 4 4 6 4 3 3 7 5 4 2 11 14 15 6 9 11 10 11 9 9 8 8 7 6 5
10 5 4 4 5 5 5 10 3 15 6 3 2 2 3 6 3 5 5 5 2 3 2 3 2 3 4 1 7 10 12 11 19 23 20 15 13 11 10 11 11 10 8 7
5 6 3 3 3 7 3 10 8 9 6 5 3 3 2 5 4 3 2 3 2 2 3 3 3 1 3 4 9 12 14 14 15 19 18 12 12 12 15 16 13 12 10 9
4 2 2 2 8 5 4 5 6 7 3 6 6 10 3 5 3 1 4 2 1 2 1 2 2 2 2 10 11 11 11 12 13 13 16 16 17 17 15 15 13 11 11 11
5 7 6 4 5 5 3 3 2 3 3 3 2 5 6 3 4 2 2 1 1 3 2 2 2 1 6 10 12 12 11 11 11 9 11 11 12 12 12 11 9 9 9 11
2 4 3 3 3 3 3 3 2 2 2 2 3 1 2 2 2 1 1 2 2 2 2 1 1 3 8 11 12 12 10 10 8 8 7 6 4 5 3 2 4 6 9 10
3 3 3 3 3 2 1 2 2 2 1 4 4 2 1 0 0 1 2 1 0 1 2 2 1 5 9 11 12 12 13 13 11 10 9 7 4 3 2 1 3 5 7 8
3 2 3 2 0 0 1 2 2 2 2 3 3 2 1 0 1 1 1 1 2 3 3 2 2 2 6 9 11 12 13 14 13 11 10 8 7 5 4 3 4 4 5 6
4 4 3 5 1 2 1 2 3 2 1 2 2 2 0 2 1 1 4 1 4 2 2 5 4 3 5 10 11 12 12 13 13 13 11 9 8 6 4 4 5 6 5 7
4 4 5 7 4 1 3 2 3 2 1 1 1 1 3 1 1 2 2 2 1 8 9 6 5 2 6 9 10 11 13 13 13 13 12 9 7 6 5 4 4 5 7 8
Wind_Direction
341 339 342 348 350 356 0 358 48 346 353 31 10 314 301 305 323 220 227 300 54 78 75 74 73 121 77 145 126 102 82 118 123 172 255 159 149 168 143 126 240 69 139 276
344 342 339 347 355 1 346 350 298 331 350 58 325 292 298 284 325 328 348 83 77 70 80 97 92 93 121 151 135 155 171 104 91 52 23 48 195 178 138 120 99 209 137 263
346 344 348 351 357 359 353 358 346 341 3 7 318 343 344 341 305 300 283 27 69 91 58 24 108 97 22 166 150 124 101 123 148 177 168 138 188 181 168 137 147 185 231 279
343 352 350 354 358 9 9 23 360 360 338 339 324 314 320 317 7 232 10 54 63 104 96 82 93 94 93 51 128 63 88 93 40 201 215 173 195 186 186 198 203 196 226 236
338 351 352 355 360 16 31 18 356 335 287 295 295 351 346 12 45 21 4 61 46 68 120 60 167 130 99 164 50 86 9 97 43 333 351 225 239 227 210 217 227 249 262 277
340 345 355 356 2 13 25 8 351 313 293 334 338 5 5 14 23 22 54 27 64 45 343 91 112 88 85 137 125 119 96 113 80 292 328 321 297 223 207 207 209 217 241 251
337 336 350 356 358 2 3 355 342 341 311 342 358 341 6 351 26 77 15 12 63 63 54 82 84 73 71 69 53 89 116 123 150 264 0 357 245 218 191 206 242 223 254 271
332 330 344 348 351 349 350 4 1 345 308 321 324 350 7 335 36 65 77 40 28 3 52 66 71 17 45 30 28 43 83 100 63 95 256 292 288 178 156 171 291 202 228 260
329 324 332 346 341 340 337 350 344 332 313 259 321 325 321 310 8 19 41 42 29 36 67 70 121 176 138 154 98 42 68 83 105 257 280 253 266 21 240 179 294 241 222 283
318 318 319 330 338 343 329 319 306 317 282 279 333 277 309 332 35 91 338 359 20 23 62 79 127 151 138 154 171 160 138 165 212 211 271 290 257 293 176 103 237 295 301 293
306 318 304 315 330 322 314 304 292 263 277 285 274 268 310 334 9 129 203 42 1 33 52 92 262 109 207 107 160 168 182 167 198 159 194 272 239 286 187 219 299 307 317 310
297 304 313 303 310 312 296 298 280 278 278 269 288 274 259 261 297 355 155 137 170 179 109 58 31 347 29 169 250 249 220 185 184 182 213 240 243 254 267 304 301 313 312 317
301 295 297 296 293 290 286 275 277 280 283 295 281 261 217 255 237 212 269 291 229 189 141 151 130 271 138 220 241 203 240 181 214 39 264 245 271 279 279 280 293 302 312 311
297 295 293 292 295 282 269 258 261 247 262 270 269 242 220 224 227 230 230 249 238 194 182 125 174 236 183 229 280 216 205 149 197 259 289 286 291 271 334 296 301 315 321 314
297 292 292 292 284 268 253 254 255 246 234 304 293 287 235 232 228 233 238 240 233 200 182 167 217 252 183 248 313 253 200 197 177 231 250 262 281 300 303 303 298 307 313 309
297 292 292 278 281 242 260 266 237 220 230 280 283 268 230 217 213 214 225 234 229 217 204 188 209 210 193 234 238 332 72 335 268 258 280 282 286 290 286 288 299 298 301 299
300 302 292 273 243 224 218 207 84 188 205 238 271 276 219 210 203 210 233 261 252 221 205 196 189 220 197 234 217 340 358 357 356 354 330 296 300 291 295 291 288 289 295 282
307 309 348 244 194 214 241 243 242 175 187 237 264 267 307 189 190 203 209 218 223 213 206 224 214 165 191 237 26 343 336 335 254 325 340 314 308 305 294 290 283 277 279 263
295 296 97 127 192 219 218 207 184 186 212 275 237 218 246 184 206 205 209 207 226 217 219 207 227 185 205 45 331 333 335 327 309 309 308 302 286 294 301 298 280 270 263 246
280 214 235 236 228 229 196 160 163 185 218 230 249 238 254 188 187 220 202 183 208 230 206 178 209 170 119 356 337 324 323 321 319 314 311 309 290 286 297 301 284 264 255 239
275 269 250 276 203 217 212 196 187 187 221 209 227 220 206 214 215 216 219 185 188 246 161 228 204 171 302 329 332 334 321 309 303 295 291 291 288 288 289 292 278 252 242 229
268 295 300 172 203 225 230 186 190 191 220 209 210 188 199 189 209 193 201 210 164 253 133 221 174 120 332 338 340 342 333 322 318 315 301 291 282 277 282 277 255 238 225 217
316 250 260 211 211 222 225 203 164 220 226 189 158 102 168 186 206 211 155 229 218 128 209 184 111 345 343 344 344 346 345 345 343 344 340 329 304 280 285 259 218 216 217 221
261 235 256 213 185 251 197 214 211 197 206 147 139 117 141 155 265 196 239 211 232 228 191 209 152 337 347 354 355 356 1 5 6 4 9 7 5 356 339 291 244 239 233 213
269 247 237 244 107 337 270 146 132 127 141 152 113 80 76 332 279 207 325 233 255 214 199 152 150 42 21 14 10 7 8 9 12 9 8 9 4 354 333 306 271 250 223 213
251 245 285 256 208 156 173 174 142 107 139 117 96 113 76 244 243 230 228 217 223 212 138 137 138 100 28 10 12 16 15 12 12 12 10 5 353 345 339 316 282 262 247 231
237 252 254 278 290 150 148 158 159 153 189 134 123 195 229 78 237 248 208 224 138 155 140 146 145 97 16 6 3 4 8 13 15 13 12 7 360 354 346 332 315 289 257 240
Height
1474 1469 1464 1457 1451 1446 1440 1436 1435 1432 1430 1430 1429 1431 1423 1418 1414 1415 1413 1410 1407 1412 1413 1420 1422 1426 1428 1429 1432 1438 1442 1453 1461 1462 1457 1458 1461 1466 1471 1489 1495 1498 1501 1470
1473 1468 1463 1456 1451 1447 1443 1440 1436 1432 1431 1438 1431 1424 1421 1420 1417 1414 1410 1408 1408 1412 1417 1425 1425 1427 1431 1431 1434 1439 1442 1457 1472 1463 1462 1460 1460 1464 1467 1473 1482 1504 1496 1466
1473 1468 1462 1456 1452 1448 1445 1442 1439 1435 1433 1434 1431 1427 1424 1419 1416 1414 1413 1411 1411 1416 1421 1422 1427 1431 1432 1433 1435 1437 1439 1449 1453 1461 1456 1459 1465 1461 1463 1469 1482 1483 1476 1460
1473 1469 1463 1457 1453 1449 1447 1445 1445 1443 1438 1431 1431 1429 1428 1423 1415 1416 1414 1415 1416 1419 1425 1426 1431 1432 1434 1437 1437 1440 1442 1451 1450 1451 1451 1452 1455 1457 1461 1467 1463 1471 1456 1453
1473 1469 1464 1459 1456 1451 1450 1448 1448 1445 1440 1436 1432 1429 1426 1421 1419 1419 1421 1422 1422 1420 1424 1424 1430 1431 1434 1436 1440 1442 1445 1457 1454 1454 1452 1453 1454 1454 1455 1457 1458 1456 1452 1448
1473 1469 1465 1461 1459 1456 1453 1452 1450 1448 1440 1437 1434 1432 1429 1426 1425 1425 1425 1426 1425 1426 1428 1425 1427 1430 1433 1434 1440 1445 1447 1454 1458 1473 1456 1453 1456 1446 1446 1447 1447 1445 1452 1435
1472 1469 1466 1463 1461 1460 1458 1455 1453 1450 1444 1440 1440 1436 1433 1429 1427 1428 1430 1429 1429 1433 1431 1431 1432 1434 1436 1438 1441 1441 1448 1451 1453 1466 1458 1469 1439 1434 1436 1439 1436 1438 1435 1431
1471 1468 1466 1463 1461 1460 1458 1456 1455 1453 1449 1446 1440 1438 1436 1433 1432 1432 1434 1433 1434 1432 1432 1436 1439 1443 1442 1445 1446 1446 1446 1452 1459 1468 1460 1450 1432 1434 1435 1435 1430 1428 1431 1428
1469 1468 1465 1463 1461 1459 1458 1456 1455 1455 1454 1448 1446 1442 1439 1437 1436 1436 1435 1435 1434 1434 1437 1441 1443 1451 1443 1449 1450 1450 1451 1453 1463 1465 1459 1459 1434 1431 1430 1431 1436 1426 1427 1424
1468 1466 1464 1462 1461 1459 1457 1456 1456 1455 1453 1446 1445 1443 1442 1439 1438 1439 1438 1437 1437 1436 1441 1448 1450 1444 1441 1451 1451 1452 1453 1454 1456 1458 1456 1450 1434 1431 1430 1438 1438 1426 1425 1423
1466 1464 1462 1460 1459 1458 1457 1456 1455 1454 1452 1445 1443 1442 1441 1440 1439 1440 1439 1440 1439 1440 1445 1446 1444 1444 1445 1448 1450 1453 1450 1455 1455 1456 1457 1462 1430 1432 1434 1430 1426 1425 1422 1420
1463 1461 1459 1458 1457 1456 1455 1453 1453 1452 1452 1445 1441 1440 1439 1440 1440 1440 1439 1440 1440 1440 1444 1448 1447 1445 1448 1448 1447 1448 1451 1446 1450 1450 1445 1430 1429 1428 1426 1426 1423 1421 1419 1418
1459 1457 1456 1454 1453 1452 1453 1451 1451 1451 1449 1442 1438 1436 1438 1438 1438 1440 1440 1440 1440 1440 1440 1442 1445 1447 1448 1445 1441 1445 1441 1439 1443 1441 1427 1427 1424 1424 1423 1422 1421 1419 1417 1415
1455 1453 1451 1450 1448 1447 1447 1447 1448 1450 1449 1445 1436 1435 1436 1436 1437 1438 1439 1440 1440 1440 1441 1441 1442 1443 1443 1444 1440 1439 1436 1436 1436 1437 1428 1423 1420 1420 1419 1418 1418 1416 1415 1413
1450 1448 1446 1444 1443 1443 1443 1442 1443 1445 1448 1442 1435 1433 1433 1434 1435 1436 1437 1438 1439 1440 1441 1441 1442 1441 1442 1440 1440 1438 1429 1430 1434 1430 1423 1423 1420 1419 1418 1417 1416 1415 1413 1412
1445 1443 1440 1439 1438 1439 1440 1438 1437 1440 1443 1444 1436 1432 1431 1432 1432 1433 1435 1435 1436 1437 1436 1436 1436 1436 1438 1438 1435 1425 1425 1425 1424 1422 1421 1420 1418 1417 1417 1416 1414 1412 1411 1410
1440 1437 1434 1432 1433 1435 1437 1436 1435 1437 1441 1441 1436 1430 1429 1430 1431 1432 1433 1433 1433 1432 1432 1431 1433 1433 1433 1431 1429 1425 1424 1422 1421 1420 1418 1416 1415 1415 1414 1413 1412 1410 1409 1409
1436 1433 1428 1425 1428 1433 1433 1433 1433 1436 1438 1437 1434 1430 1429 1428 1428 1430 1430 1431 1430 1428 1429 1429 1428 1429 1428 1426 1424 1423 1421 1419 1419 1417 1418 1417 1414 1413 1412 1411 1410 1409 1408 1408
1434 1433 1431 1430 1430 1430 1429 1430 1432 1434 1438 1433 1431 1428 1429 1426 1426 1427 1428 1427 1426 1427 1425 1425 1425 1421 1420 1424 1424 1423 1422 1421 1417 1413 1413 1413 1412 1411 1410 1409 1408 1407 1406 1406
1432 1432 1431 1430 1428 1428 1428 1430 1432 1434 1432 1431 1428 1424 1424 1426 1424 1423 1425 1424 1425 1423 1421 1421 1420 1420 1424 1424 1423 1421 1419 1417 1415 1412 1409 1409 1408 1407 1406 1405 1404 1404 1404 1405
1432 1429 1428 1427 1428 1428 1427 1427 1428 1428 1427 1424 1422 1422 1422 1422 1423 1423 1423 1422 1424 1420 1419 1418 1415 1417 1423 1422 1420 1419 1417 1415 1413 1411 1408 1406 1404 1402 1402 1401 1400 1400 1401 1403
1432 1430 1427 1426 1426 1425 1424 1421 1422 1421 1419 1418 1417 1418 1419 1420 1420 1420 1421 1421 1423 1417 1420 1418 1412 1422 1422 1420 1418 1416 1414 1411 1409 1406 1403 1402 1400 1399 1398 1397 1397 1398 1399 1401
1429 1428 1426 1424 1422 1421 1417 1415 1417 1417 1416 1416 1416 1418 1418 1419 1420 1419 1419 1418 1416 1419 1416 1414 1419 1421 1420 1418 1416 1414 1411 1408 1405 1403 1400 1398 1397 1396 1396 1395 1396 1397 1398 1399
1429 1425 1423 1421 1417 1417 1416 1417 1417 1417 1416 1416 1416 1417 1418 1418 1418 1417 1416 1417 1418 1415 1413 1414 1419 1420 1418 1416 1414 1411 1409 1405 1402 1401 1399 1398 1396 1396 1395 1395 1396 1396 1396 1397
1427 1424 1420 1416 1416 1416 1416 1416 1416 1417 1416 1416 1416 1417 1418 1418 1418 1417 1417 1415 1416 1410 1409 1415 1417 1418 1417 1416 1413 1411 1408 1405 1401 1399 1398 1396 1396 1395 1395 1395 1395 1396 1397 1398
1425 1422 1420 1415 1415 1415 1416 1416 1416 1416 1416 1416 1416 1418 1418 1417 1417 1416 1412 1412 1410 1410 1413 1415 1416 1417 1417 1415 1413 1411 1408 1406 1403 1401 1399 1397 1397 1396 1395 1395 1396 1396 1397 1398
1422 1418 1416 1417 1415 1413 1414 1415 1415 1416 1417 1417 1417 1418 1414 1418 1416 1414 1409 1407 1409 1411 1413 1415 1416 1416 1416 1414 1413 1410 1408 1407 1405 1402 1401 1399 1398 1397 1396 1396 1396 1396 1396 1397